Location: Newark
(38.1091°N, 103.8677°W)
Time: 13:05:39
(UTC+00:00)

Hubble Space Telescope - Visible Passes

Search period start: 21 October 2019 00:00
Search period end: 31 October 2019 00:00
Orbit: 536 x 540 km, 28.5° (Epoch: 20 October)

Date Brightness Start Highest point End Pass type
(mag) Time Alt. Az. Time Alt. Az. Time Alt. Az.
29 Oct 3.1 12:41:29 10° SW 12:44:20 18° S 12:47:11 10° SE visible
30 Oct 3.6 10:53:46 10° SSE 10:53:46 10° SSE 10:53:49 10° SSE visible
30 Oct 2.9 12:30:40 10° SW 12:33:40 19° S 12:36:39 10° SE visible
